Theta_e
335 334 329 332 330 330 330 332 337 337 337 335 334 332 330 330 326 324 321 322 320 316
338 338 330 335 335 332 336 336 335 336 333 333 331 329 327 327 323 322 321 320 319 316
340 339 336 335 335 335 340 335 335 332 331 331 329 327 325 326 322 319 318 317 316 316
339 338 335 336 335 338 340 335 332 330 329 328 326 324 322 319 318 316 316 316 314 313
339 337 336 336 335 339 336 334 332 329 327 324 323 320 318 316 316 313 313 312 312 310
338 337 336 335 335 336 334 332 330 326 322 318 319 317 313 315 313 312 312 311 310 310
341 338 334 334 335 334 332 328 324 319 318 315 313 315 313 315 313 312 311 311 310 309
341 337 333 332 332 330 329 323 319 317 313 314 312 312 312 314 312 311 311 312 312 310
337 334 331 330 329 325 321 318 317 314 311 311 312 303 305 310 312 312 311 309 311 310
335 331 329 327 323 318 318 316 312 312 311 304 301 301 301 305 309 311 311 310 310 308
331 328 324 321 319 315 316 314 311 313 308 304 302 301 300 302 306 310 312 311 308 308
330 324 320 316 315 315 311 311 312 312 309 304 301 300 300 301 304 310 310 308 307 307
327 323 318 316 314 311 313 311 311 312 311 306 303 299 299 300 304 308 308 310 303 300
324 322 317 312 312 310 310 310 310 309 307 305 303 301 298 300 301 307 308 308 302 300
Wind_Speed
13 9 9 11 10 9 9 9 10 7 7 6 5 4 3 2 2 4 3 2 4 4
12 11 11 11 8 7 7 9 12 9 7 6 5 4 3 2 4 2 3 4 4 3
12 11 9 10 9 8 7 13 12 10 7 6 5 4 3 2 3 3 4 3 4 4
12 12 11 10 10 8 8 13 12 11 8 7 6 5 4 3 2 3 2 3 5 5
14 14 13 12 13 9 11 12 12 10 8 6 6 4 4 3 3 4 3 5 4 4
15 15 14 12 13 12 13 12 10 10 8 7 5 5 3 3 4 4 3 5 2 3
15 14 13 12 13 13 14 13 12 11 10 7 6 2 4 5 5 1 4 3 2 7
15 15 13 12 11 13 12 12 13 13 11 9 7 4 3 5 5 4 4 4 4 6
15 14 14 13 13 12 12 12 11 9 9 7 7 8 8 4 5 4 4 3 5 6
15 14 12 11 13 12 13 12 10 8 8 7 10 9 6 3 4 5 4 4 5 4
15 15 15 14 13 13 12 12 10 8 8 8 7 6 4 1 4 3 4 5 5 5
17 17 17 16 14 13 13 11 8 5 9 9 5 8 3 3 5 6 6 7 5 5
17 18 17 15 14 13 12 11 8 8 9 10 5 6 6 2 5 5 4 6 6 8
13 15 16 14 12 13 13 11 8 7 8 7 8 4 6 9 5 6 6 7 6 4
Wind_Direction
196 188 185 178 173 173 168 173 153 152 141 139 156 139 119 133 28 56 42 3 83 308
193 195 189 175 178 175 174 141 151 144 137 137 127 122 82 152 102 57 18 359 57 14
193 200 188 177 188 181 142 148 143 136 139 141 134 100 48 86 114 116 64 24 21 26
189 194 189 181 189 170 132 138 137 142 148 149 142 127 139 90 107 83 86 59 41 17
184 187 190 181 185 153 142 144 149 142 147 144 127 140 99 72 68 75 77 66 28 29
181 185 193 182 175 156 149 149 140 132 115 104 98 92 85 54 77 58 77 75 47 39
176 181 185 182 175 160 154 143 131 119 112 105 121 87 129 135 96 70 100 117 207 80
172 176 176 174 170 155 149 128 129 131 136 149 136 212 90 108 127 154 165 183 118 111
169 173 167 166 157 148 129 127 125 130 142 171 116 93 93 52 153 185 106 165 106 133
158 153 161 144 131 130 131 128 131 147 169 129 102 125 127 69 289 121 165 81 71 175
150 146 138 137 141 141 136 143 150 174 132 116 111 135 144 132 297 155 108 113 90 68
146 141 140 144 144 141 140 139 153 121 105 91 128 161 204 268 277 169 173 148 156 138
151 147 145 147 143 139 138 130 127 121 131 147 155 180 221 223 276 190 197 188 114 76
147 146 136 133 130 134 124 122 124 126 110 129 136 179 247 249 267 256 206 164 142 153